DW8248 Weather Reports


time (UTC)temp
F
wind
direction
speed
knots
gust
knots
rain 1hr
in
rain 24hr
in
rain mn
in
humidity
%
barometer
mb
20260507221220 83 113 6.1 11.3 0.00 0.00 0.00 74 1012.4
20260507220206 83 133 6.1 11.3 0.00 0.00 0.00 73 1012.4
20260507215147 83 124 7.0 11.3 0.00 0.00 0.00 73 1012.4
20260507214122 82 128 7.0 11.3 0.00 0.00 0.00 74 1012.4
20260507205736 83 152 7.0 12.2 0.00 0.00 0.00 74 1012.7
20260507203549 83 124 7.0 12.2 0.00 0.00 0.00 74 1012.7
20260507202520 83 151 7.0 12.2 0.00 0.00 0.00 74 1012.8
20260507201454 83 133 7.0 12.2 0.00 0.00 0.00 75 1012.9
20260507200429 83 132 6.1 10.4 0.00 0.00 0.00 74 1013.1
20260507195356 83 98 6.1 11.3 0.00 0.00 0.00 75 1013.3
20260507194354 83 112 7.0 12.2 0.00 0.00 0.00 74 1013.4
20260507192231 82 121 6.1 11.3 0.00 0.00 0.00 74 1013.4
20260507191211 82 118 6.1 11.3 0.00 0.00 0.00 74 1013.8
20260507185057 83 96 5.2 8.7 0.00 0.00 0.00 74 1014.1
20260507184042 83 118 4.3 9.6 0.00 0.00 0.00 74 1014.3
20260507183028 82 86 5.2 10.4 0.00 0.00 0.00 73 1014.5
20260507181951 83 131 6.1 10.4 0.00 0.00 0.00 73 1014.6
20260507180935 83 103 5.2 9.6 0.00 0.00 0.00 69 1014.7
20260507174758 82 77 5.2 9.6 0.00 0.00 0.00 72 1014.8
20260507173738 83 99 5.2 9.6 0.00 0.00 0.00 70 1014.8
20260507172746 82 124 6.1 9.6 0.00 0.00 0.00 74 1014.8
20260507171733 82 123 5.2 9.6 0.00 0.00 0.00 73 1014.9
20260507170742 82 115 5.2 9.6 0.00 0.00 0.00 74 1015.0
20260507164628 82 105 5.2 9.6 0.00 0.00 0.00 72 1015.1
20260507163629 84 144 4.3 9.6 0.00 0.00 0.00 70 1015.3
20260507161510 84 171 2.6 5.2 0.00 0.00 0.00 67 1015.5
20260507160522 84 173 0.0 0.0 0.00 0.00 0.00 65 1015.6
20260507155454 83 187 1.7 4.3 0.00 0.00 0.00 66 1015.8
20260507154459 83 202 1.7 5.2 0.00 0.00 0.00 68 1015.8
20260507152318 82 200 4.3 7.0 0.00 0.00 0.00 68 1015.9
20260507151338 82 211 5.2 9.6 0.00 0.00 0.00 69 1016.0
20260507145201 81 193 7.0 8.7 0.00 0.00 0.00 71 1016.1
20260507144153 81 205 7.0 8.7 0.00 0.00 0.00 70 1016.1
20260507143206 80 211 7.0 8.7 0.00 0.00 0.00 70 1016.1
20260507142140 80 205 7.0 8.7 0.00 0.00 0.00 72 1016.2
20260507141111 80 218 7.0 8.7 0.00 0.00 0.00 72 1016.1
20260507140055 80 205 7.0 10.4 0.00 0.00 0.00 71 1016.3
20260507135058 79 215 7.8 10.4 0.00 0.00 0.00 69 1016.2
20260507134030 79 192 6.1 9.6 0.00 0.00 0.00 72 1016.1
20260507133034 78 186 5.2 7.8 0.00 0.00 0.00 74 1016.1
20260507131003 77 176 3.5 5.2 0.00 0.00 0.00 77 1016.2
20260507125933 77 176 3.5 5.2 0.00 0.00 0.00 77 1016.3
20260507124948 76 178 3.5 5.2 0.00 0.00 0.00 78 1016.3
20260507123924 76 203 5.2 6.1 0.00 0.00 0.00 78 1016.3
20260507122859 75 200 5.2 7.0 0.00 0.00 0.00 80 1016.3
20260507121847 75 190 4.3 7.0 0.00 0.00 0.00 80 1016.2
20260507115730 74 198 3.5 5.2 0.00 0.00 0.00 82 1016.2
20260507114746 74 209 2.6 3.5 0.00 0.00 0.00 83 1016.2
20260507113724 74 213 3.5 4.3 0.00 0.00 0.00 83 1016.1
20260507112719 73 215 3.5 4.3 0.00 0.00 0.00 83 1016.0
20260507111718 73 233 4.3 6.1 0.00 0.00 0.00 83 1015.9
20260507110717 73 228 4.3 6.1 0.00 0.00 0.00 82 1015.8
20260507105649 73 223 5.2 7.8 0.00 0.00 0.00 81 1015.8
20260507104701 74 232 4.3 7.8 0.00 0.00 0.00 81 1015.6
20260507103633 74 214 3.5 5.2 0.00 0.00 0.00 81 1015.6
20260507102615 74 211 3.5 5.2 0.00 0.00 0.00 81 1015.5
20260507101623 74 219 4.3 7.0 0.00 0.00 0.00 81 1015.4
20260507100630 74 229 5.2 7.0 0.00 0.00 0.00 81 1015.0
20260507095647 74 210 5.2 7.0 0.00 0.00 0.00 80 1014.8
20260507094629 74 200 3.5 5.2 0.00 0.00 0.00 80 1014.8
20260507093553 74 184 2.6 4.3 0.00 0.00 0.00 81 1014.7
20260507092533 74 208 2.6 3.5 0.00 0.00 0.00 81 1014.8
20260507091555 74 221 1.7 3.5 0.00 0.00 0.00 81 1014.9
20260507085425 74 227 0.0 0.0 0.00 0.00 0.00 81 1014.7
20260507084416 74 219 1.7 4.3 0.00 0.00 0.00 81 1014.5
20260507083354 74 212 2.6 4.3 0.00 0.00 0.00 81 1014.4
20260507082323 74 209 2.6 3.5 0.00 0.00 0.00 81 1014.4
20260507081332 74 195 2.6 3.5 0.00 0.00 0.00 81 1014.4
20260507080257 74 216 1.7 3.5 0.00 0.00 0.00 81 1014.4
20260507075244 74 223 1.7 2.6 0.00 0.00 0.00 81 1014.4
20260507074208 74 205 2.6 3.5 0.00 0.00 0.00 81 1014.5
20260507073206 74 209 2.6 4.3 0.00 0.00 0.00 81 1014.6
20260507071055 75 212 5.2 6.1 0.00 0.00 0.00 81 1014.8
20260507070032 75 190 3.5 6.1 0.00 0.00 0.00 81 1014.8
20260507065026 75 193 2.6 5.2 0.00 0.00 0.00 80 1015.0
20260507064000 75 243 4.3 6.1 0.00 0.00 0.00 80 1015.2
20260507062952 75 248 3.5 6.1 0.00 0.00 0.00 80 1015.4
20260507062010 75 232 3.5 5.2 0.00 0.00 0.00 79 1015.4
20260507061006 76 237 4.3 6.1 0.00 0.00 0.00 79 1015.4
20260507060014 76 209 4.3 6.1 0.00 0.00 0.00 79 1015.4
20260507054957 76 193 5.2 7.0 0.00 0.00 0.00 79 1015.4
20260507053946 76 216 5.2 8.7 0.00 0.00 0.00 78 1015.6
20260507052911 77 228 6.1 9.6 0.00 0.00 0.00 77 1015.7
20260507051847 79 232 6.1 10.4 0.00 0.00 0.00 75 1015.9
20260507050817 79 158 5.2 10.4 0.00 0.00 0.00 74 1016.0
20260507045749 79 143 5.2 10.4 0.00 0.00 0.00 74 1016.0
20260507044747 79 142 6.1 10.4 0.00 0.00 0.00 73 1015.9
20260507041444 79 142 5.2 9.6 0.00 0.00 0.00 73 1015.6
20260507035346 79 139 5.2 10.4 0.00 0.00 0.00 72 1015.9
20260507033225 79 156 4.3 10.4 0.00 0.00 0.00 73 1015.9
20260507032247 79 137 4.3 10.4 0.00 0.00 0.00 73 1015.9
20260507031240 79 95 6.1 10.4 0.00 0.00 0.00 73 1015.8
20260507030226 79 148 5.2 10.4 0.00 0.00 0.00 73 1015.6
20260507023020 79 105 4.3 9.6 0.00 0.00 0.00 73 1015.9
20260507015713 79 95 4.3 9.6 0.00 0.00 0.00 72 1016.0
20260507013625 79 131 5.2 9.6 0.00 0.00 0.00 71 1016.1
20260507012632 79 117 4.3 7.8 0.00 0.00 0.00 71 1016.0
20260507011653 80 86 4.3 8.7 0.00 0.00 0.00 70 1015.9
20260507010704 80 132 4.3 8.7 0.00 0.00 0.00 69 1015.8
20260507005639 80 140 5.2 8.7 0.00 0.00 0.00 69 1015.8
20260507004612 80 121 5.2 10.4 0.00 0.00 0.00 69 1015.7
20260507003626 80 142 5.2 10.4 0.00 0.00 0.00 69 1015.7
20260507002601 80 134 5.2 9.6 0.00 0.00 0.00 69 1015.5
20260507000500 80 113 4.3 10.4 0.00 0.00 0.00 68 1015.3
20260506235457 80 111 4.3 8.7 0.00 0.00 0.00 68 1015.4
20260506234507 81 132 4.3 9.6 0.00 0.00 0.00 66 1015.5
20260506233501 81 123 4.3 9.6 0.00 0.00 0.00 65 1015.5
20260506232523 81 93 4.3 9.6 0.00 0.00 0.00 65 1015.6
20260506231511 81 128 4.3 9.6 0.00 0.00 0.00 64 1015.5
20260506230532 82 145 4.3 9.6 0.00 0.00 0.00 63 1015.5
20260506224321 82 0 5.2 9.6 0.00 0.00 0.00 58 1015.5
20260506223325 82 100 5.2 9.6 0.00 0.00 0.00 55 1015.5
20260506222322 82 92 4.3 9.6 0.00 0.00 0.00 58 1015.6